Volver al catálogo

KZ-11 R/B

ActivoPO
NORAD 68205·ROCKET BODY·🇨🇳 China

Lanzado Mar 16, 2026 desde Jiuquan Satellite Launch Center

Loading…

Próximos Pases (próximas 24 horas)

TLE

ActualizadoSource: Space-Track

Época: Sep 14, 2026, 14:37 UTC

1 68205U 26052H   26257.60968640  .00037954  17404-5  45555-3 0  9993
2 68205  97.3192 317.4788 0509394 135.7806 228.5316 14.79095435 26868

Sigue KZ-11 R/B en tiempo real con AllMySat

Download on the App Store